<< Return to Weather Page
Ortonville, MN
on Monday, May 7, 2012

Monday
Previous Day Next Day
Daily Summary
 ActualAverage (KATY)Record (KATY)
Temperature
Mean Temperature - 53 °F  
Max Temperature 62 °F 65 °F 93 °F (1916)
Min Temperature 44 °F 41 °F 21 °F (1976)
Degree Days
Heating Degree Days 12 12  
Month to date heating degree days 91  
Since 1 July heating degree days 8242  
Cooling Degree Days 0 0  
Month to date cooling degree days 0  
Year to date cooling degree days 2  
Growing Degree Days3 (Base - )  
Moisture
Dew Point 40 °F   
Average Humidity 58    
Maximum Humidity 81    
Minimum Humidity 37    
Precipitation
Precipitation 0.00 in 0.07 in 1.55 in (1978)
Month to date precipitation 0.56  
Year to date precipitation 4.77  
Wind
Wind Speed 11 mph   
Max Wind Speed 22 mph   
Max Gust Speed 31 mph   
Visibility 10 miles   
Events     

Key: T is trace of precipitation, MM is missing value
Source: NWS Daily Summary
Time(CDT)TemperatureDew PointHumidity Pressure Visibility Wind DirectionWind SpeedGust SpeedPrecipitationEvents Conditions
12:13 AM 51.8 °F 42.8 °F 71% 30.04 in 10.0 miles WSW 4.6 mph - N/A   Clear
12:34 AM 51.8 °F 41.0 °F 67% 30.04 in 10.0 miles WNW 8.1 mph - N/A   Clear
12:54 AM 55.4 °F 39.2 °F 54% 30.04 in 10.0 miles WNW 13.8 mph - N/A   Clear
1:14 AM 55.4 °F 39.2 °F 54% 30.04 in 10.0 miles West 9.2 mph - N/A   Clear
1:34 AM 53.6 °F 39.2 °F 58% 30.04 in 10.0 miles West 9.2 mph - N/A   Clear
1:54 AM 51.8 °F 39.2 °F 62% 30.04 in 10.0 miles West 9.2 mph - N/A   Clear
2:14 AM 50.0 °F 39.2 °F 66% 30.04 in 10.0 miles West 9.2 mph - N/A   Clear
2:33 AM 50.0 °F 39.2 °F 66% 30.04 in 10.0 miles West 6.9 mph - N/A   Clear
2:54 AM 48.2 °F 39.2 °F 71% 30.03 in 10.0 miles West 4.6 mph - N/A   Clear
3:13 AM 48.2 °F 39.2 °F 71% 30.03 in 10.0 miles Calm Calm - N/A   Clear
3:33 AM 48.2 °F 39.2 °F 71% 30.02 in 10.0 miles West 4.6 mph - N/A   Clear
3:54 AM 46.4 °F 39.2 °F 76% 30.02 in 10.0 miles West 8.1 mph - N/A   Clear
4:14 AM 46.4 °F 39.2 °F 76% 30.02 in 10.0 miles West 8.1 mph - N/A   Clear
4:33 AM 46.4 °F 39.2 °F 76% 30.01 in 10.0 miles West 6.9 mph - N/A   Clear
4:54 AM 46.4 °F 39.2 °F 76% 30.01 in 10.0 miles West 6.9 mph - N/A   Clear
5:14 AM 46.4 °F 39.2 °F 76% 30.01 in 10.0 miles West 6.9 mph - N/A   Clear
5:33 AM 46.4 °F 39.2 °F 76% 30.01 in 10.0 miles West 5.8 mph - N/A   Clear
5:54 AM 44.6 °F 37.4 °F 76% 30.01 in 10.0 miles Calm Calm - N/A   Clear
6:13 AM 44.6 °F 37.4 °F 76% 30.01 in 10.0 miles West 8.1 mph - N/A   Clear
6:33 AM 44.6 °F 39.2 °F 81% 30.01 in 10.0 miles West 6.9 mph - N/A   Clear
6:54 AM 46.4 °F 39.2 °F 76% - 10.0 miles West 6.9 mph - N/A   Clear
7:12 AM 46.4 °F 39.2 °F 76% 30.01 in 10.0 miles North - - N/A   Clear
7:34 AM 48.2 °F 39.2 °F 71% 30.01 in 10.0 miles West 5.8 mph - N/A   Clear
7:54 AM 50.0 °F 39.2 °F 66% 30.00 in 10.0 miles West 8.1 mph - N/A   Clear
8:13 AM 51.8 °F 41.0 °F 67% 30.01 in 10.0 miles West 9.2 mph - N/A   Clear
8:34 AM 51.8 °F 41.0 °F 67% 30.00 in 10.0 miles West 11.5 mph - N/A   Clear
8:54 AM 53.6 °F 41.0 °F 62% 30.00 in 10.0 miles West 13.8 mph 20.7 mph N/A   Clear
9:13 AM 53.6 °F 41.0 °F 62% 30.00 in 10.0 miles WNW 11.5 mph 20.7 mph N/A   Clear
9:34 AM 55.4 °F 41.0 °F 58% 29.99 in 10.0 miles WNW 17.3 mph 20.7 mph N/A   Clear
9:54 AM 55.4 °F 41.0 °F 58% 29.98 in 10.0 miles WNW 18.4 mph 25.3 mph N/A   Clear
10:13 AM 57.2 °F 41.0 °F 55% 29.98 in 10.0 miles WNW 19.6 mph 26.5 mph N/A   Clear
10:34 AM 57.2 °F 42.8 °F 59% 29.98 in 10.0 miles West 17.3 mph 24.2 mph N/A   Clear
10:53 AM 57.2 °F 41.0 °F 55% 29.98 in 10.0 miles WNW 16.1 mph 23.0 mph N/A   Scattered Clouds
11:14 AM 59.0 °F 41.0 °F 51% 29.98 in 10.0 miles WNW 18.4 mph 26.5 mph N/A   Scattered Clouds
11:34 AM 59.0 °F 42.8 °F 55% 29.98 in 10.0 miles West 15.0 mph 21.9 mph N/A   Mostly Cloudy
11:53 AM 59.0 °F 42.8 °F 55% 29.98 in 10.0 miles West 15.0 mph 25.3 mph N/A   Mostly Cloudy
12:14 PM 60.8 °F 39.2 °F 45% 29.98 in 10.0 miles West 13.8 mph 25.3 mph N/A   Mostly Cloudy
12:34 PM 60.8 °F 37.4 °F 42% 29.98 in 10.0 miles WNW 18.4 mph 27.6 mph N/A   Mostly Cloudy
12:54 PM 60.8 °F 35.6 °F 39% 29.98 in 10.0 miles WNW 21.9 mph 28.8 mph N/A   Mostly Cloudy
1:14 PM 62.6 °F 37.4 °F 39% 29.97 in 10.0 miles WNW 18.4 mph 31.1 mph N/A   Mostly Cloudy
1:34 PM 62.6 °F 35.6 °F 37% 29.97 in 10.0 miles WNW 20.7 mph 25.3 mph N/A   Mostly Cloudy
1:53 PM 62.6 °F 37.4 °F 39% 29.96 in 10.0 miles WNW 16.1 mph 25.3 mph N/A   Mostly Cloudy
2:14 PM 62.6 °F 35.6 °F 37% 29.96 in 10.0 miles WNW 18.4 mph 26.5 mph N/A   Scattered Clouds
2:34 PM 62.6 °F 37.4 °F 39% 29.96 in 10.0 miles West 19.6 mph 31.1 mph N/A   Scattered Clouds
2:53 PM 62.6 °F 37.4 °F 39% 29.96 in 10.0 miles NW 18.4 mph 28.8 mph N/A   Scattered Clouds
3:14 PM 62.6 °F 37.4 °F 39% 29.96 in 10.0 miles NW 18.4 mph 26.5 mph N/A   Mostly Cloudy
3:33 PM 62.6 °F 39.2 °F 42% 29.96 in 10.0 miles WNW 17.3 mph 24.2 mph N/A   Overcast
3:54 PM 60.8 °F 37.4 °F 42% 29.96 in 10.0 miles WNW 19.6 mph 27.6 mph N/A   Mostly Cloudy
4:14 PM 60.8 °F 37.4 °F 42% 29.95 in 10.0 miles WNW 18.4 mph 24.2 mph N/A   Mostly Cloudy
4:33 PM 62.6 °F 39.2 °F 42% 29.95 in 10.0 miles West 16.1 mph 26.5 mph N/A   Mostly Cloudy
4:54 PM 60.8 °F 39.2 °F 45% 29.95 in 10.0 miles WNW 18.4 mph 25.3 mph N/A   Mostly Cloudy
5:13 PM 60.8 °F 37.4 °F 42% 29.95 in 10.0 miles WNW 17.3 mph 25.3 mph N/A   Overcast
5:33 PM 60.8 °F 37.4 °F 42% 29.95 in 10.0 miles WNW 18.4 mph 24.2 mph N/A   Overcast
5:54 PM 60.8 °F 37.4 °F 42% 29.94 in 10.0 miles WNW 19.6 mph 26.5 mph N/A   Scattered Clouds
6:14 PM 59.0 °F 39.2 °F 48% 29.95 in 10.0 miles WNW 19.6 mph 28.8 mph N/A   Scattered Clouds
6:33 PM 59.0 °F 39.2 °F 48% 29.95 in 10.0 miles NW 19.6 mph 31.1 mph N/A   Scattered Clouds
6:54 PM 57.2 °F 41.0 °F 55% 29.94 in 10.0 miles NW 15.0 mph 24.2 mph N/A   Mostly Cloudy
7:14 PM 57.2 °F 42.8 °F 59% 29.94 in 10.0 miles WNW 15.0 mph 24.2 mph N/A   Mostly Cloudy
7:33 PM 57.2 °F 42.8 °F 59% 29.94 in 10.0 miles WNW 10.4 mph 18.4 mph N/A   Scattered Clouds
7:54 PM 57.2 °F 42.8 °F 59% 29.94 in 10.0 miles WNW 12.7 mph 18.4 mph N/A   Mostly Cloudy
8:14 PM 57.2 °F 42.8 °F 59% 29.94 in 10.0 miles West 11.5 mph 16.1 mph N/A   Overcast
8:34 PM 57.2 °F 41.0 °F 55% 29.93 in 10.0 miles West 12.7 mph 19.6 mph N/A   Mostly Cloudy
8:54 PM 55.4 °F 41.0 °F 58% 29.93 in 10.0 miles WNW 11.5 mph 19.6 mph N/A   Overcast
9:14 PM 55.4 °F 41.0 °F 58% 29.93 in 10.0 miles WNW 10.4 mph 19.6 mph N/A   Mostly Cloudy
9:33 PM 55.4 °F 39.2 °F 54% 29.93 in 10.0 miles WNW 10.4 mph - N/A   Mostly Cloudy
9:54 PM 53.6 °F 41.0 °F 62% 29.94 in 10.0 miles West 6.9 mph - N/A   Scattered Clouds
10:14 PM 53.6 °F 41.0 °F 62% 29.94 in 10.0 miles West 8.1 mph - N/A   Scattered Clouds
10:34 PM 53.6 °F 42.8 °F 67% 29.93 in 10.0 miles West 12.7 mph - N/A   Clear
10:54 PM 53.6 °F 42.8 °F 67% 29.93 in 10.0 miles West 11.5 mph 19.6 mph N/A   Clear
11:13 PM 53.6 °F 41.0 °F 62% 29.93 in 10.0 miles WNW 11.5 mph - N/A   Clear
11:34 PM 51.8 °F 41.0 °F 67% 29.93 in 10.0 miles WNW 9.2 mph - N/A   Clear
11:54 PM 51.8 °F 42.8 °F 71% 29.93 in 10.0 miles WNW 13.8 mph 17.3 mph N/A   Clear

Astronomy

Sunrise: 06:05 AM (CDT) Moon Rise: 10:57 PM (CDT) 5 / 7
Sunset: 08:40 PM (CDT) Moon Set: 07:07 AM (CDT) 5 / 7
Moon Phase
May. 07 May. 12 May. 20 May. 28 Jun. 04

Powered by the Weather Underground, Inc.